Regional Weather Roundup
Issued by NWS

Home | Current Version | Previous Version | Text Only | Print | Product List | Glossary Off
Versions: 1 2 3 4 5 6 7 8 9 10 11 12 13 14 15 16 17 18 19 20 21 22 23 24 25 26 27 28 29 30 31 32 33 34 35 36 37 38 39 40 41 42 43 44 45 46 47 48 49 50

000
ASUS44 KMEG 270700
RWRTN
TENNESSEE HOURLY STATE WEATHER ROUNDUP
NATIONAL WEATHER SERVICE MEMPHIS TN
200 AM CDT MON APR 27 2015

TNZ002-004-019-021-049-052-054-088>092-270800-
WEST TENNESSEE

CITY           SKY/WX    TMP DP  RH WIND       PRES   REMARKS
MEMPHIS INTL   CLOUDY    55  47  74 NE8       29.90S
NWS MEMPHIS      N/A     53 N/A N/A MISG        N/A
JACKSON        PTCLDY    44  42  93 CALM      29.91F FOG
DYERSBURG      CLEAR     50  30  46 NE12      29.94F
UNION CITY     CLEAR     45  32  61 N6        29.94R
PARIS          CLEAR     45  37  76 N7        29.94R
LEXINGTON      CLEAR     45  43  93 N5        29.89S
SAVANNAH       CLEAR     45  32  61 CALM      29.89S
$$

TNZ008-025-027-028-033-062-065-066-270800-
NORTH MIDDLE TENNESSEE

CITY           SKY/WX    TMP DP  RH WIND       PRES   REMARKS
NASHVILLE      CLEAR     48  43  82 N6        29.90S
CLARKSVILLE    CLEAR     47  40  76 N9        29.93R
COOKEVILLE     CLOUDY    43  43 100 CALM      29.86F VSB 1/2
CROSSVILLE     FOG       44  43  96 N3        29.87S VSB 1
$$

TNZ061-075-076-078-094-096-097-270800-
SOUTH MIDDLE TENNESSEE

CITY           SKY/WX    TMP DP  RH WIND       PRES   REMARKS
FAYETTEVILLE   CLEAR     45  45 100 CALM      29.86F
TULLAHOMA      CLEAR     45  43  93 CALM      29.87F
WINCHESTER     MOCLDY    43  43 100 CALM      29.87F VSB 1
MCMINNVILLE    CLOUDY    39  39 100 CALM      29.87S VSB 1/4
COLUMBIA       CLOUDY    43  32  65 CALM      29.87S VSB 1/4
SHELBYVILLE    CLEAR     43  43 100 CALM      29.88F
$$

TNZ017-018-042-046-047-270800-
NORTHEAST TENNESSEE

CITY           SKY/WX    TMP DP  RH WIND       PRES   REMARKS
TRI CITIES     CLEAR     47  42  83 CALM      29.82F
ELIZABETHTON   CLOUDY    46  43  87 CALM      29.82F
$$

TNZ012-013-036-069-073-074-270800-
CENTRAL EAST TENNESSEE

CITY           SKY/WX    TMP DP  RH WIND       PRES   REMARKS
KNOXVILLE      CLOUDY    53  47  79 CALM      29.83F
OAK RIDGE      CLEAR     46  44  93 CALM      29.86S
GATLINBURG     CLOUDY    52  48  87 CALM      29.83F
$$

TNZ083-085-099-270800-
SOUTHEAST TENNESSEE

CITY           SKY/WX    TMP DP  RH WIND       PRES   REMARKS
CHATTANOOGA    CLEAR     49  46  90 CALM      29.85F
$$

SKY/WX REPORTED AS FAIR MEANS FEW OR NO CLOUDS BELOW
12 THOUSAND FEET.




USA.gov is the U.S. government's official web portal to all federal, state and local government web resources and services.